This is the latest recevied weather packets stored in our database for station/object KB7KFC-3. If no packets are shown the sender has not sent any weather packets the latest 1 day(s).
| Time | Temp. | Humidity | Pressure | Rain* | Wind** | Luminosity | Snow |
|---|---|---|---|---|---|---|---|
| 1778052663 | 15.56° C | 41% | 1014.6 hPa | 0 mm | - | - | - |
| 1778051584 | 16.11° C | 38% | 1014.4 hPa | 0 mm | - | - | - |
| 1778051223 | 16.67° C | 38% | 1014.4 hPa | 0 mm | - | - | - |
| 1778051043 | 16.67° C | 38% | 1014.3 hPa | 0 mm | - | - | - |
| 1778050863 | 16.67° C | 38% | 1014.4 hPa | 0 mm | - | - | - |
| 1778049783 | 16.67° C | 43% | 1014.2 hPa | 0 mm | - | - | - |
| 1778049604 | 16.67° C | 43% | 1014.2 hPa | 0 mm | - | - | - |
| 1778049424 | 16.67° C | 44% | 1014.2 hPa | 0 mm | - | - | - |
| 1778049243 | 16.67° C | 43% | 1014.1 hPa | 0 mm | - | - | - |
| 1778047983 | 17.78° C | 40% | 1014.1 hPa | 0 mm | - | - | - |
| 1778047804 | 17.78° C | 40% | 1014.1 hPa | 0 mm | - | - | - |
| 1778047624 | 17.78° C | 39% | 1014 hPa | 0 mm | - | - | - |
| 1778047444 | 17.78° C | 38% | 1014 hPa | 0 mm | - | - | - |
| 1778046724 | 17.78° C | 36% | 1013.9 hPa | 0 mm | - | - | - |
| 1778046543 | 17.78° C | 35% | 1013.8 hPa | 0 mm | - | - | - |
| 1778046364 | 17.78° C | 35% | 1013.8 hPa | 0 mm | - | - | - |
| 1778045283 | 18.89° C | 33% | 1013.7 hPa | 0 mm | - | - | - |
| 1778045104 | 18.89° C | 33% | 1013.7 hPa | 0 mm | - | - | - |
| 1778044923 | 18.89° C | 34% | 1013.7 hPa | 0 mm | - | - | - |
| 1778044744 | 18.89° C | 34% | 1013.7 hPa | 0 mm | - | - | - |
| 1778044564 | 18.89° C | 34% | 1013.7 hPa | 0 mm | - | - | - |
| 1778043483 | 18.89° C | 32% | 1013.5 hPa | 0 mm | - | - | - |
| 1778042583 | 20° C | 30% | 1013.4 hPa | 0 mm | - | - | - |
| 1778042224 | 20° C | 29% | 1013.4 hPa | 0 mm | - | - | - |
| 1778042044 | 20° C | 29% | 1013.4 hPa | 0 mm | - | - | - |
* Rain latest hour (hover to see other rain measurements)
** Current wind speed in m/s (hover to see current wind gust speed)